User: anonymous   Login
Location: Elk Forest
(39.5314°N, 75.8738°W)
Time: 15:34:34
(UTC-04:00)
Language:

Resurs 01 Rocket - Orbit

View from above orbital plane
View from above orbital plane
View from above satellite
View from above satellite

Ground track
Ground track

The orbit data is extracted from the following two-line orbital elements,

1 23343U 94074B   16144.92968762 +.00000020 +00000-0 +10504-4 0  9990
2 23343 098.1948 171.0703 0005787 233.8182 222.8902 14.76656223159179
Epoch (UTC): 23 May 2016 22:18:45
Eccentricity: 0.0005787
inclination: 98.1948°
perigee height: 636 km
apogee height: 644 km
right ascension of ascending node: 171.0703°
argument of perigee: 233.8182°
revolutions per day: 14.76656223
mean anomaly at epoch: 222.8902°
orbit number at epoch: 15917

The dashed part of the orbit path shows where the satellite is in the earth's shadow,  

DLR